Flag for Norway Weather past 2 weeks in Spydeberg, Norway

Now
84 °F

Sunny.


Feels Like: 83 °F
Forecast: 64 / 83 °F
Wind: 8 mph from West

Location: Rygge

Current Time: Jul 22, 2014 at 8:05:12 PM

Latest Report: Jul 22, 2014 at 6:50 PM


Visibility: 10 mi

Pressure: 30.24 "Hg

Humidity: 37%

Dew point: 55 °F

Location of SpydebergLocation

Historic Weather in Spydeberg — Graph

°F

Spydeberg temperature yesterday

Maximum temperature yesterday: 86 °F (at 2:50 PM)
Minimum temperature yesterday: 57 °F (at 3:20 AM)
Average temperature yesterday: 74 °F

Past Weeks' High & Low Weather Summary

 TemperatureHumidityPressure
High86 °F (Jul 21, 2:50 PM)100% (Jul 8, 1:20 AM)30.27 "Hg (Jul 8, 1:20 AM)
Low54 °F (Jul 19, 4:50 AM)28% (Jul 10, 11:50 AM)29.62 "Hg (Jul 13, 8:50 PM)
Average69 °F65%30.01 "Hg
* Reported Jul 7 6:20 PM — Jul 22 6:50 PM, Spydeberg, Weather by CustomWeather, © 2014

Note: Actual official high and low records may vary slightly from our data, if they occured in-between our weather recording intervals... More about our weather records

Advertising

Spydeberg weather history for previous 24 hours

 ConditionsComfort  
Time TempWeatherWind HumidityBarometerVisibility
6:50 PM
Jul 22
84 °FSunny.8 mph37%30.24 "Hg10 mi
6:20 PM86 °FPassing clouds.7 mph35%30.24 "HgN/A
5:50 PM84 °FPassing clouds.8 mph37%30.24 "HgN/A
5:20 PM82 °FPassing clouds.8 mph42%30.24 "HgN/A
4:50 PM84 °FPassing clouds.7 mph37%30.24 "HgN/A
4:20 PM86 °FPassing clouds.9 mph35%30.24 "HgN/A
3:50 PM86 °FPassing clouds.7 mph33%30.24 "HgN/A
3:20 PM86 °FPassing clouds.8 mph33%30.24 "HgN/A
2:50 PM86 °FPassing clouds.8 mph35%30.24 "HgN/A
2:20 PM82 °FPassing clouds.7 mph37%30.24 "HgN/A
1:50 PM84 °FPassing clouds.8 mph35%30.27 "HgN/A
1:20 PM86 °FPassing clouds.7 mph35%30.27 "HgN/A
12:50 PM86 °FPassing clouds.7 mph35%30.27 "HgN/A
12:20 PM81 °FPassing clouds.9 mph42%30.27 "HgN/A
11:50 AM81 °FPassing clouds.7 mph45%30.27 "HgN/A
11:20 AM82 °FPassing clouds.3 mph37%30.27 "HgN/A
10:50 AM84 °FSunny.2 mph37%30.27 "Hg10 mi
10:20 AM82 °FSunny.2 mph40%30.27 "Hg10 mi
9:50 AM82 °FSunny.1 mph42%30.27 "Hg10 mi
9:20 AM79 °FSunny.2 mph51%30.24 "Hg10 mi
8:50 AM79 °FSunny.2 mph48%30.24 "Hg10 mi
8:20 AM77 °FSunny.2 mph54%30.24 "Hg10 mi
7:50 AM75 °FSunny.1 mph57%30.24 "Hg10 mi
7:20 AM72 °FSunny.2 mph61%30.24 "Hg10 mi
6:50 AM68 °FSunny.2 mph69%30.24 "Hg10 mi
6:20 AM66 °FSunny.2 mph73%30.21 "Hg10 mi
5:50 AM64 °FPassing clouds.3 mph78%30.21 "HgN/A
5:20 AM64 °FPassing clouds.3 mph78%30.21 "HgN/A
4:50 AM63 °FPassing clouds.3 mph83%30.21 "HgN/A
4:20 AM63 °FOvercast.2 mph77%30.21 "HgN/A
3:50 AM63 °FMostly cloudy.2 mph83%30.21 "HgN/A
3:20 AM63 °FPassing clouds.2 mph83%30.21 "HgN/A
2:50 AM63 °FMild.1 mph83%30.21 "HgN/A
2:20 AM64 °FMild.1 mph73%30.21 "HgN/A
1:50 AM64 °FMild.2 mph73%30.18 "HgN/A
1:20 AM64 °FMild.1 mph73%30.18 "HgN/A
12:50 AM68 °FMild.1 mph60%30.18 "HgN/A
12:20 AM72 °FMild.3 mph53%30.18 "HgN/A
11:50 PM
Jul 21
73 °FMild.3 mph50%30.18 "HgN/A
11:20 PM73 °FMild.5 mph50%30.18 "HgN/A
10:50 PM73 °FSunny.2 mph53%30.15 "Hg10 mi
10:20 PM75 °FSunny.2 mph50%30.15 "Hg10 mi
9:50 PM79 °FPassing clouds.3 mph45%30.15 "HgN/A
9:20 PM81 °FSunny.5 mph42%30.12 "Hg10 mi
8:50 PM81 °FPassing clouds.6 mph39%30.12 "HgN/A
8:20 PM82 °FSunny.8 mph37%30.12 "Hg10 mi
Weather by CustomWeather, © 2014

See weather overviewHow to use our weather pages